Location: Zlin
(49.2330°N, 17.6670°E)
Time: 13:34:08
(UTC+01:00)

ISS - Visible Passes

Search period start: 05 December 2016 00:00
Search period end: 15 December 2016 00:00
Orbit: 401 x 410 km, 51.6° (Epoch: 05 December)

Date Brightness Start Highest point End Pass type
(mag) Time Alt. Az. Time Alt. Az. Time Alt. Az.
05 Dec -3.1 17:27:08 10° SW 17:30:23 59° SSE 17:31:29 36° E visible
05 Dec 0.0 19:03:40 10° W 19:04:10 13° W 19:04:10 13° W visible
06 Dec -2.4 16:35:25 10° SW 16:38:30 38° SSE 16:41:36 10° E visible
06 Dec -2.5 18:11:37 10° W 18:14:17 51° WNW 18:14:17 51° WNW visible
07 Dec -3.4 17:19:36 10° WSW 17:22:54 85° NNW 17:24:22 31° ENE visible
07 Dec -0.2 18:56:20 10° WNW 18:57:03 15° WNW 18:57:03 15° WNW visible
08 Dec -3.1 16:27:39 10° WSW 16:30:55 69° SSE 16:34:13 10° ENE visible
08 Dec -2.7 18:04:16 10° W 18:07:06 50° NW 18:07:06 50° NW visible
09 Dec -3.1 17:12:10 10° W 17:15:27 62° N 17:17:09 25° ENE visible
09 Dec -0.5 18:48:54 10° WNW 18:49:49 17° WNW 18:49:49 17° WNW visible
10 Dec -2.9 17:56:51 10° WNW 17:59:53 53° NNW 17:59:53 53° NNW visible
11 Dec -3.0 17:04:44 10° W 17:07:59 54° N 17:09:57 21° ENE visible
11 Dec -0.8 18:41:22 10° WNW 18:42:37 21° WNW 18:42:37 21° WNW visible
12 Dec -3.4 17:49:19 10° WNW 17:52:36 65° NNE 17:52:43 65° NNE visible
13 Dec -3.1 16:57:13 10° WNW 17:00:29 56° N 17:02:52 17° E visible
13 Dec -1.3 18:33:46 10° WNW 18:35:32 28° W 18:35:32 28° W visible
14 Dec -3.4 17:41:41 10° WNW 17:45:00 88° SSW 17:45:46 50° ESE visible
